Helicity
52 51 53 58 66 65 54 45 30 29 27 30 41 43 40 33 41 5 -2 0 16 24 43 24 18 10 20 16 11 75 55 113 39 16 20 27 6 12 75 28 -11 -67 35 57 -33
45 44 44 48 57 69 65 58 48 27 23 25 33 30 28 22 12 25 19 62 59 61 27 7 1 -6 -41 8 26 -18 54 39 -15 38 60 20 41 61 76 -14 -52 11 80 32 6
42 48 48 46 53 62 63 59 57 47 24 18 22 16 13 3 24 14 46 43 50 25 17 13 5 -22 -14 36 24 -2 15 -3 -40 93 157 91 -91 -11 4 -12 -35 128 109 56 10
37 37 46 50 57 58 63 58 58 56 37 19 8 6 8 14 53 26 30 52 48 14 11 -4 -7 2 -14 -7 58 80 165 172 75 124 171 136 77 9 8 19 150 162 201 115 59
45 39 38 52 64 65 63 52 65 53 40 16 -5 7 13 36 39 -31 -5 34 30 37 -15 -38 -6 -37 -4 27 68 70 180 82 37 134 116 96 56 138 128 0 78 57 180 139 67
50 51 48 51 67 74 69 56 60 55 33 17 -5 18 35 66 60 10 -2 18 14 29 -24 -31 -12 -34 35 85 61 50 36 32 7 68 47 81 67 65 36 15 15 119 191 68 48
47 60 64 63 74 80 75 69 64 46 32 28 21 5 32 -9 43 20 11 61 2 32 -1 -47 4 53 26 88 66 40 19 26 20 80 -13 115 43 18 53 23 75 167 154 25 6
47 59 65 82 98 86 71 75 77 34 24 24 20 4 29 -7 31 21 -14 8 50 29 -31 -48 111 96 53 48 72 74 44 -52 13 48 59 97 72 179 215 61 81 126 74 -11 -33
52 80 84 88 112 85 61 109 61 8 17 23 46 35 40 32 6 -5 25 21 36 40 -29 101 135 81 69 26 34 81 18 20 14 52 140 117 149 147 219 76 72 112 17 -43 -65
42 81 84 93 127 96 53 90 2 22 14 2 25 70 15 24 60 -3 -1 56 57 64 113 121 116 69 36 39 0 12 23 43 26 89 189 157 226 272 207 159 110 49 45 -13 -99
9 51 72 72 108 85 -17 65 67 74 61 24 105 84 24 60 16 -15 19 40 63 88 104 96 102 52 24 17 -10 55 93 36 8 6 136 278 317 277 109 110 76 -41 34 64 -41
27 48 62 64 99 98 11 113 78 85 54 6 58 51 94 80 44 25 33 45 65 102 100 111 60 33 33 29 35 65 121 109 59 47 52 415 304 164 199 217 160 -49 -31 153 17
33 54 63 65 140 50 58 35 13 46 47 50 -4 20 20 41 33 40 17 28 57 60 76 86 74 -17 7 35 73 94 106 119 97 90 -37 329 417 323 129 113 217 147 166 107 165
20 45 55 62 6 8 75 -18 9 17 55 64 38 44 104 50 58 68 108 115 78 70 64 66 64 62 105 55 43 91 80 92 115 92 26 70 76 112 192 220 315 402 301 115 27
59 61 61 2 21 74 134 62 3 32 156 37 121 44 50 29 77 86 123 92 81 103 74 68 56 86 82 67 2 50 64 58 93 59 97 25 52 57 252 242 250 492 146 5 8
83 78 39 10 68 84 125 93 36 71 96 68 46 9 19 -4 26 32 0 30 107 132 128 126 43 22 77 60 27 -8 69 104 49 65 63 60 98 44 214 202 305 364 77 -25 -95
113 124 13 -29 18 90 60 98 23 -3 41 18 -5 -21 -43 -18 23 14 5 47 67 114 119 162 127 87 64 77 49 61 103 151 104 122 44 32 85 105 1 176 417 377 99 23 -46
142 117 18 41 55 112 75 84 92 18 226 39 43 37 -14 23 13 -20 33 54 5 17 209 205 199 113 81 135 141 91 84 174 127 87 28 57 67 56 48 232 365 387 178 69 21
161 -1 27 68 154 61 93 139 22 70 140 164 2 -2 -6 21 63 47 -8 39 35 49 120 158 188 46 138 48 97 104 156 77 111 86 98 84 59 84 10 135 215 250 159 45 239
75 12 65 32 29 73 126 20 68 29 133 164 197 102 97 107 22 -9 -40 21 71 67 82 172 143 101 129 118 75 51 95 174 137 108 121 119 96 31 25 -56 284 359 227 299 489
56 61 52 0 89 127 129 2 25 2 32 82 140 179 156 68 105 139 122 160 178 141 16 67 34 46 124 182 116 121 142 109 119 163 87 72 31 -67 28 -21 190 371 330 393 422
42 -49 26 59 130 -7 10 -7 52 108 114 116 75 166 217 159 159 159 130 134 59 114 205 197 118 55 65 89 160 200 96 93 160 171 183 155 19 -107 -146 -21 24 186 243 315 485
-53 -1 -14 64 60 67 57 78 45 142 196 187 162 124 104 92 44 200 250 135 219 166 217 213 136 126 64 -14 18 135 99 55 107 137 187 198 60 -53 30 132 236 354 307 126 271
17 -3 47 50 117 172 92 122 75 63 43 63 39 33 78 95 83 2 21 89 131 239 235 208 167 115 106 284 250 166 232 188 136 116 138 142 95 29 -55 -29 134 108 252 263 191
68 18 0 -9 -3 1 88 31 27 12 52 55 49 69 56 64 72 103 96 89 83 150 160 176 109 122 110 104 194 287 303 279 267 242 172 209 197 -36 -58 -49 -52 21 -17 -8 139
-15 -27 -13 -8 -8 42 18 19 32 29 44 93 75 66 51 50 70 75 100 106 50 24 136 169 88 62 90 60 78 108 281 360 355 239 259 224 239 -62 -61 -40 -26 -2 -32 -26 83
-70 -24 -22 -34 -15 1 -18 -10 13 15 33 40 38 17 9 33 16 6 14 25 33 13 39 131 104 86 36 99 151 102 57 221 299 360 208 209 73 -75 -102 -42 -17 -104 -100 29 123
Wind_Speed
64 64 65 65 65 64 63 61 60 57 55 53 53 51 48 46 46 40 48 41 24 21 33 22 17 47 3 28 52 22 35 45 46 46 41 20 33 38 23 36 47 53 39 54 65
65 66 66 66 66 66 64 63 61 59 56 55 54 52 48 47 48 53 48 12 14 15 30 20 3 6 16 22 44 20 39 43 32 37 30 21 44 35 28 41 46 32 41 56 65
68 69 68 68 67 66 65 63 61 60 58 56 54 50 46 44 44 35 22 7 9 17 37 59 36 25 28 44 62 54 40 56 56 24 21 12 12 33 30 36 27 37 48 62 63
71 71 71 70 69 68 66 63 62 61 60 56 51 45 42 36 35 26 14 11 9 21 29 44 57 38 47 23 68 65 68 66 61 24 22 26 37 37 28 23 30 41 50 62 61
75 75 75 74 73 71 69 65 64 61 58 53 45 38 35 34 42 15 15 10 9 17 13 20 51 49 45 54 61 67 66 64 39 22 25 14 18 24 22 36 2 51 47 59 58
78 78 77 76 76 74 71 67 65 61 55 47 42 30 31 35 27 13 15 14 12 5 11 28 41 45 31 63 63 64 70 66 58 22 16 17 21 21 23 40 24 48 48 57 57
81 80 79 78 77 76 74 69 66 59 54 45 30 29 39 34 36 34 26 14 9 7 17 30 66 61 54 63 64 63 66 67 58 35 37 16 28 26 18 30 33 33 44 58 55
83 83 82 81 79 77 75 71 67 57 49 37 29 35 45 30 43 42 33 35 2 7 19 23 64 65 65 60 67 64 62 60 61 40 32 26 31 16 18 30 22 37 45 60 61
84 84 82 81 80 78 75 74 65 50 39 32 34 35 47 27 34 35 34 32 8 11 12 66 66 63 58 58 62 60 62 59 66 66 33 24 19 4 25 27 24 35 46 65 65
85 85 83 81 80 77 75 70 48 41 34 31 42 48 46 39 27 36 25 44 14 13 23 51 61 46 60 49 54 59 56 54 65 65 16 15 14 5 12 13 16 42 47 60 72
85 84 83 81 78 73 63 44 41 38 37 36 35 36 31 31 31 36 21 36 27 29 37 39 49 47 51 56 65 71 71 70 64 61 13 17 12 7 11 20 25 76 67 58 73
85 84 82 80 76 71 46 40 41 47 54 55 60 57 42 37 39 31 27 30 28 36 37 48 57 58 49 59 60 73 73 72 67 61 55 19 15 12 15 12 14 88 80 57 69
84 82 80 76 71 48 38 46 45 47 52 56 48 44 46 35 45 35 28 40 32 38 37 53 53 51 63 66 66 73 70 70 67 63 49 23 35 17 16 10 9 31 28 53 61
82 80 77 71 42 45 47 34 45 38 48 46 24 32 26 33 42 25 30 40 50 53 47 57 68 69 54 64 68 70 65 68 70 67 57 38 49 36 28 26 19 25 44 64 69
63 66 65 53 44 38 46 46 43 37 45 16 18 26 31 29 30 37 34 45 56 58 53 63 53 66 74 67 57 75 65 68 69 72 75 78 63 48 28 35 27 15 76 84 76
54 57 59 35 26 33 52 49 40 33 43 26 24 31 31 38 42 28 39 36 49 60 67 70 68 61 69 76 68 56 70 74 69 68 85 81 62 56 26 21 18 26 32 86 79
56 55 49 27 28 34 42 38 26 28 11 26 26 26 27 24 32 37 43 37 46 54 65 61 69 68 64 69 74 65 60 70 72 79 87 66 75 61 23 16 24 37 33 35 90
55 46 28 20 25 30 34 30 22 33 30 20 16 26 35 22 34 31 38 49 43 51 64 67 70 65 57 63 58 64 59 66 74 77 80 76 77 73 59 26 26 32 23 45 46
35 32 30 22 26 28 30 23 33 33 35 35 24 30 33 36 34 36 43 51 51 40 55 55 66 56 56 70 57 68 70 67 77 87 80 75 72 73 71 34 26 27 24 21 21
22 32 31 15 19 34 33 28 29 31 36 36 37 37 37 33 35 35 38 40 32 35 36 47 64 50 52 41 50 63 63 59 72 90 95 78 79 61 50 64 26 32 38 21 24
30 33 20 17 35 33 29 24 25 28 32 34 38 40 41 43 43 42 37 35 40 43 37 47 51 68 55 43 53 51 66 58 61 64 81 93 86 64 47 58 34 37 44 31 30
17 3 8 30 29 22 30 32 33 37 36 34 36 36 39 45 43 43 44 45 44 46 48 46 54 73 74 71 63 69 66 64 73 78 73 74 89 57 47 55 45 41 33 34 36
25 34 26 17 34 35 34 40 42 40 40 40 39 41 44 41 40 43 45 46 50 44 45 51 51 67 73 63 50 55 62 77 74 82 94 89 88 36 38 37 38 30 35 31 28
44 34 41 42 40 38 35 39 40 43 42 42 40 38 41 40 41 38 43 42 46 47 49 51 58 64 75 67 64 73 72 66 68 85 90 87 84 76 49 43 37 31 35 19 24
40 42 41 40 40 41 39 39 42 43 44 47 39 47 46 41 48 43 49 50 52 48 54 56 73 77 82 78 78 83 83 81 80 82 91 90 90 51 45 46 44 37 30 27 22
43 43 47 45 43 43 41 42 45 48 45 46 45 48 48 44 48 53 56 53 49 51 54 56 71 75 91 84 90 95 90 91 91 90 94 88 99 64 61 59 55 54 48 37 35
43 39 41 47 46 41 43 44 48 49 44 45 45 46 49 52 54 61 63 62 55 39 30 50 61 68 86 72 79 98 91 93 96 93 89 99 89 77 72 70 62 59 54 53 49
Wind_Direction
326 324 323 320 318 315 312 309 308 304 301 293 294 290 284 279 273 285 254 259 276 283 262 284 273 242 149 273 187 152 298 285 303 327 325 26 230 121 66 117 173 163 117 124 135
323 322 320 318 315 313 310 306 304 305 300 300 296 299 297 292 289 250 239 321 312 292 268 246 241 228 251 274 267 281 285 282 338 358 7 59 180 112 88 118 136 103 110 129 136
321 319 318 316 313 310 308 305 302 300 302 300 301 299 308 306 291 301 139 115 322 298 261 208 147 146 266 261 237 258 271 247 261 33 62 61 133 106 93 120 111 123 125 138 140
321 319 316 314 312 309 307 302 300 296 295 299 304 308 312 313 303 326 69 119 311 288 264 249 236 159 174 266 235 224 231 242 254 343 20 44 184 120 101 95 237 125 130 141 144
321 319 318 315 312 310 308 303 299 297 296 300 310 318 317 307 288 349 3 348 313 276 246 259 247 181 175 198 220 245 238 252 292 335 356 12 45 79 99 118 139 135 129 143 144
321 318 317 316 313 310 308 304 301 298 302 308 313 328 313 297 310 5 347 339 300 197 170 257 257 253 240 213 220 230 247 252 263 322 23 51 26 50 107 126 106 131 133 144 146
324 318 315 313 312 309 307 303 300 298 302 309 330 318 299 291 297 299 310 317 307 227 255 166 218 244 258 245 231 246 256 262 267 284 302 350 319 330 89 117 125 127 133 146 148
322 320 317 312 308 307 305 302 298 297 303 314 324 311 289 310 293 281 291 280 314 261 253 260 217 238 249 260 251 252 256 258 257 279 284 295 309 14 70 107 120 126 139 152 153
321 317 315 311 307 307 303 297 295 302 309 312 308 307 288 315 302 289 287 278 295 275 242 234 244 254 259 263 260 257 260 260 244 248 275 289 310 76 116 120 126 135 145 160 160
324 320 317 313 309 308 305 298 306 310 311 306 295 292 284 290 312 302 304 265 272 267 265 258 257 264 258 265 260 256 258 262 250 234 227 260 288 144 135 144 159 147 149 156 169
327 321 317 312 307 308 314 324 310 307 296 285 300 291 302 304 310 294 309 275 268 263 260 265 262 258 261 261 255 249 256 261 261 243 221 206 202 207 155 135 153 202 177 159 170
327 322 315 309 304 300 315 312 318 303 292 282 275 278 291 300 288 293 295 278 269 262 260 263 257 258 265 261 261 251 252 254 261 268 269 242 222 231 177 180 191 205 181 154 168
328 321 315 309 300 310 312 303 319 307 291 285 275 276 280 291 279 277 282 271 271 263 261 260 262 259 256 258 259 257 257 254 259 268 299 263 269 249 252 253 174 252 238 180 163
327 320 316 311 320 320 312 316 314 323 289 285 267 285 285 293 282 285 287 283 268 264 267 266 256 257 262 260 258 260 260 259 260 267 270 270 270 255 256 273 238 252 251 227 186
302 304 306 325 313 322 311 312 321 306 286 285 279 304 295 280 288 284 293 282 268 266 267 265 266 260 257 259 264 257 262 262 266 263 264 256 269 269 245 263 262 251 247 222 218
296 297 305 18 13 313 285 295 298 297 278 291 296 291 286 277 281 293 293 290 277 272 269 267 266 264 260 257 260 266 260 261 267 267 256 253 268 271 251 229 225 181 167 201 201
295 291 285 9 26 268 290 295 307 301 352 293 292 294 284 283 281 293 281 282 275 269 265 270 264 266 266 264 257 263 261 259 260 256 252 264 265 268 270 238 200 189 186 180 203
295 282 46 94 182 241 261 295 300 323 325 327 325 302 291 285 289 288 291 282 281 276 269 266 263 260 264 261 261 258 255 255 254 254 259 262 261 264 280 232 217 205 195 172 178
286 58 70 122 161 176 223 308 324 320 321 314 325 312 301 296 292 293 291 285 284 303 266 272 260 281 276 258 256 253 254 259 258 258 263 263 264 267 264 276 222 216 210 206 200
97 89 100 169 107 186 200 313 345 332 302 301 305 313 306 328 295 296 290 299 289 303 299 281 265 273 285 272 257 253 258 261 253 252 253 259 259 265 292 268 220 216 198 211 202
103 101 136 209 154 169 209 293 251 317 303 298 298 300 297 307 305 303 311 321 312 304 300 284 273 260 283 271 261 259 254 260 263 262 256 253 254 260 281 341 252 205 196 201 196
146 23 185 149 171 227 264 302 291 310 315 321 322 309 307 298 299 299 301 316 317 308 291 289 276 262 262 270 279 268 260 260 256 255 260 261 251 266 306 332 310 250 199 198 190
280 59 352 258 328 320 344 16 355 329 330 321 322 327 319 315 312 310 309 323 325 310 295 288 278 268 261 265 276 272 266 258 262 259 253 253 246 270 314 328 6 346 306 235 197
4 1 342 354 341 340 352 345 350 351 350 342 356 1 345 334 330 325 319 320 323 314 304 294 274 267 257 263 275 267 269 270 262 253 252 255 253 253 282 298 309 349 11 10 236
48 23 339 342 340 2 5 353 347 346 341 3 2 347 338 335 325 321 326 320 324 319 303 291 271 268 266 268 270 267 266 264 260 259 254 255 251 260 285 289 294 298 327 348 1
44 30 29 358 6 19 358 345 346 341 346 4 352 339 326 330 324 319 321 321 322 321 311 294 276 271 265 270 266 264 263 263 260 259 260 261 252 263 280 279 284 284 290 312 314
22 38 34 9 5 3 2 355 355 357 2 357 350 337 316 325 324 308 301 297 308 326 343 305 280 274 265 273 271 260 257 259 259 260 262 257 260 266 276 272 275 279 282 288 296